Weather History for New York JFK, NY

Change the Weather History Date:

Wednesday, April 17, 2013

  Actual Average Record
Temperature  
Mean Temperature 59 °F 52 °F  
Max Temperature 70 °F 60 °F 90 °F (2002)
Min Temperature 47 °F 44 °F 33 °F (1980)
Degree Days  
Heating Degree Days 6 13  
Month to date heating degree days 255 272  
Since 1 July heating degree days 4351 4508  
Cooling Degree Days 0 0  
Month to date cooling degree days 0 0  
Year to date cooling degree days 0 0  
Growing Degree Days 10 (Base 50)    
Moisture  
Dew Point 44 °F    
Average Humidity 57    
Maximum Humidity 89    
Minimum Humidity 25    
Precipitation  
Precipitation 0.01 in 0.12 in 1.05 in (1986)
Month to date precipitation 1.48 2.27  
Year to date precipitation 8.92 11.80  
Snow  
Snow 0.00 in 0.10 in - ()
Month to date snowfall 0.0 0.7  
Since 1 July snowfall 17.6 23.7  
Snow Depth 0.00 in    
Sea Level Pressure  
Sea Level Pressure 30.21 in    
Wind  
Wind Speed 8 mph (NNE)    
Max Wind Speed 18 mph    
Max Gust Speed 23 mph    
Visibility 10 miles    
Events Rain    
T = Trace of Precipitation, MM = Missing Value Source: NWS Daily Summary

Daily Weather History Graph

Daily Weather History Graph

Search for Another Location

Airport:

Trip Planner

Search our weather history database for the weather conditions in past years. The results will help you decide how hot, cold, wet, or windy it might be!

Date:

Astronomy

Apr. 17, 2013 Rise Set
Actual Time 6:13 AM EDT 7:36 PM EDT
Civil Twilight 5:44 AM EDT 8:05 PM EDT
Nautical Twilight 5:10 AM EDT 8:39 PM EDT
Astronomical Twilight 4:34 AM EDT 9:15 PM EDT
Moon 11:23 AM EDT (4/17) 1:13 AM EDT (4/17)
Length of Visible Light 14h 20m
Length of Day
13h 23m
Waxing Crescent, 42% of the Moon is Illuminated
Apr 17
Waxing Crescent
Apr 18
First Quarter
Apr 25
Full
May 2
Last Quarter
May 9
New

Hourly Weather History & Observations

Time (EDT) Temp. Dew Point Humidity Pressure Visibility Wind Dir Wind Speed Gust Speed Precip Events Conditions
12:51 AM 53.1 °F 50.0 °F 89% 30.15 in 10.0 mi South 12.7 mph - N/A   Overcast
1:51 AM 54.0 °F 50.0 °F 86% 30.14 in 10.0 mi South 12.7 mph - N/A   Overcast
2:51 AM 54.0 °F 50.0 °F 86% 30.14 in 10.0 mi SW 5.8 mph - N/A   Overcast
3:51 AM 54.0 °F 51.1 °F 90% 30.14 in 10.0 mi SSW 5.8 mph - 0.00 in Rain Light Rain
4:51 AM 55.9 °F 53.1 °F 90% 30.13 in 10.0 mi SSW 8.1 mph - 0.00 in   Overcast
5:51 AM 57.9 °F 54.0 °F 87% 30.12 in 10.0 mi WSW 6.9 mph - N/A   Overcast
6:51 AM 59.0 °F 55.0 °F 87% 30.16 in 10.0 mi North 11.5 mph - 0.01 in Rain Light Rain
7:04 AM 57.2 °F 51.8 °F 82% 30.17 in 10.0 mi NNE 12.7 mph - 0.00 in Rain Light Rain
7:51 AM 55.0 °F 48.0 °F 77% 30.21 in 10.0 mi North 11.5 mph - 0.00 in   Mostly Cloudy
8:51 AM 55.9 °F 45.0 °F 67% 30.23 in 10.0 mi Variable 6.9 mph - N/A   Mostly Cloudy
9:09 AM 55.4 °F 44.6 °F 67% 30.22 in 10.0 mi North 10.4 mph - N/A   Mostly Cloudy
9:51 AM 57.0 °F 43.0 °F 59% 30.23 in 10.0 mi North 12.7 mph - N/A   Mostly Cloudy
10:51 AM 57.9 °F 42.1 °F 56% 30.23 in 10.0 mi North 9.2 mph - N/A   Mostly Cloudy
11:51 AM 63.0 °F 39.0 °F 41% 30.22 in 10.0 mi NNE 11.5 mph - N/A   Mostly Cloudy
12:51 PM 66.0 °F 37.0 °F 34% 30.21 in 10.0 mi North 6.9 mph 16.1 mph N/A   Scattered Clouds
1:51 PM 68.0 °F 36.0 °F 31% 30.20 in 10.0 mi North 13.8 mph 19.6 mph N/A   Mostly Cloudy
2:51 PM 68.0 °F 32.0 °F 26% 30.21 in 10.0 mi North 12.7 mph 19.6 mph N/A   Mostly Cloudy
3:51 PM 69.1 °F 32.0 °F 25% 30.20 in 10.0 mi NNE 9.2 mph 16.1 mph N/A   Scattered Clouds
4:51 PM 64.0 °F 41.0 °F 43% 30.20 in 10.0 mi South 12.7 mph - N/A   Partly Cloudy
5:51 PM 63.0 °F 39.0 °F 41% 30.23 in 10.0 mi SE 8.1 mph - N/A   Partly Cloudy
6:51 PM 60.1 °F 39.0 °F 46% 30.24 in 10.0 mi SE 5.8 mph - N/A   Scattered Clouds
7:51 PM 52.0 °F 43.0 °F 71% 30.25 in 10.0 mi SSW 6.9 mph - N/A   Scattered Clouds
8:51 PM 52.0 °F 44.1 °F 74% 30.28 in 10.0 mi Calm Calm - N/A   Scattered Clouds
9:51 PM 52.0 °F 42.1 °F 69% 30.30 in 10.0 mi Calm Calm - N/A   Scattered Clouds
10:51 PM 51.1 °F 42.1 °F 71% 30.28 in 10.0 mi SSE 3.5 mph - N/A   Scattered Clouds
11:51 PM 48.9 °F 42.1 °F 77% 30.31 in 10.0 mi Calm Calm - N/A   Partly Cloudy